Flag for Germany Weather past 2 weeks in Weiden in der Oberpfalz, Bavaria, Germany

Now
57 °F

Drizzle. Low clouds.


Feels Like: 57 °F
Forecast: 53 / 71 °F
Wind: 3 mph from Northeast

Location: Weiden

Current Time: Sep 3, 2014 at 12:25:33 AM

Latest Report: Sep 3, 2014 at 12:00 AM


Visibility: 6 mi

Pressure: 30.17 "Hg

Humidity: 90%

Dew point: 54 °F

Location of Weiden in der OberpfalzLocation

Historic Weather in Weiden in der Oberpfalz — Graph

°F

Weiden in der Oberpfalz temperature yesterday

Maximum temperature yesterday: 60 °F (at 5:00 PM)
Minimum temperature yesterday: 49 °F (at 3:00 AM)
Average temperature yesterday: 56 °F

Past Weeks' High & Low Weather Summary

 TemperatureHumidityPressure
High71 °F (Aug 30, 5:00 PM)99% (Aug 28, 4:00 AM)30.17 "Hg (Aug 28, 4:00 AM)
Low40 °F (Aug 25, 7:00 AM)40% (Aug 22, 7:00 PM)29.69 "Hg (Aug 26, 9:00 AM)
Average56 °F77%30.00 "Hg
* Reported Aug 18 11:00 PM — Sep 2 11:00 PM, Weiden in der Oberpfalz, Weather by CustomWeather, © 2014

Note: Actual official high and low records may vary slightly from our data, if they occured in-between our weather recording intervals... More about our weather records

Advertising

Weiden in der Oberpfalz weather history for previous 24 hours

 ConditionsComfort  
Time TempWeatherWind HumidityBarometerVisibility
11:00 PM
Sep 2
57 °FLow clouds.2 mph92%30.17 "Hg10 mi
10:00 PM57 °FLow clouds.2 mph91%30.16 "Hg11 mi
9:00 PM58 °FOvercast.3 mph89%30.15 "Hg12 mi
8:00 PM59 °FOvercast.2 mph82%30.13 "Hg19 mi
7:00 PM60 °FOvercast.2 mph83%30.11 "Hg14 mi
6:00 PM60 °FOvercast.2 mph82%30.11 "Hg14 mi
5:00 PM60 °FOvercast.1 mph78%30.10 "Hg15 mi
4:00 PM59 °FOvercast.1 mph86%30.11 "Hg14 mi
3:00 PM58 °FOvercast.3 mph84%30.12 "Hg9 mi
2:00 PM59 °FPartly sunny.1 mph79%30.11 "Hg9 mi
1:00 PM57 °FDrizzle. Overcast.1 mph87%30.13 "Hg3 mi
12:00 PM57 °FLight rain. Overcast.1 mph83%30.13 "Hg4 mi
11:00 AM58 °FOvercast.1 mph75%30.12 "Hg11 mi
10:00 AM55 °FLow clouds.1 mph87%30.12 "Hg6 mi
9:00 AM53 °FFog.1 mph94%30.12 "Hg4 mi
8:00 AM52 °FFog.2 mph97%30.13 "Hg2 mi
7:00 AM52 °FFog.1 mph97%30.12 "Hg4 mi
6:00 AM52 °FFog.No wind97%30.11 "Hg2 mi
5:00 AM52 °FFog.No wind98%30.12 "Hg4 mi
4:00 AM51 °FFog.No wind99%30.12 "Hg4 mi
3:00 AM49 °FPassing clouds.1 mph99%30.14 "Hg4 mi
2:00 AM51 °FPassing clouds.1 mph97%30.14 "Hg6 mi
1:00 AM52 °FPassing clouds.1 mph96%30.14 "Hg6 mi
12:00 AM53 °FOvercast.1 mph94%30.13 "Hg12 mi
Weather by CustomWeather, © 2014

See weather overviewHow to use our weather pages